EW5684 Weather Reports


Display with metric or nautical units.
time (UTC)temp
F
wind
direction
speed
MPH
gust
MPH
rain 1hr
in
rain 24hr
in
rain mn
in
humidity
%
barometer
mb
20260510173252 58 0 3.0 5.0 0.00 0.86 0.86 61 1013.1
20260510172751 58 0 1.0 3.0 0.00 0.86 0.86 60 1013.1
20260510172252 58 0 1.0 4.0 0.00 0.86 0.86 61 1013.1
20260510171751 58 0 2.0 4.0 0.00 0.86 0.86 61 1013.1
20260510171251 58 0 4.0 4.0 0.00 0.86 0.86 61 1013.1
20260510170751 58 0 2.0 5.0 0.00 0.86 0.86 61 1013.1
20260510170251 58 0 1.0 5.0 0.00 0.86 0.86 61 1013.2
20260510165751 58 0 3.0 5.0 0.00 0.86 0.86 61 1013.1
20260510165513 58 0 4.0 5.0 0.00 0.86 0.86 61 1013.2
20260510164751 58 0 2.0 5.0 0.00 0.86 0.86 62 1013.2
20260510164250 58 0 2.0 5.0 0.00 0.86 0.86 62 1013.2
20260510163750 58 0 3.0 5.0 0.00 0.86 0.86 62 1013.2
20260510163251 58 0 3.0 4.0 0.00 0.86 0.86 62 1013.3
20260510162750 58 0 2.0 4.0 0.00 0.86 0.86 62 1013.2
20260510162251 58 0 2.0 4.0 0.00 0.86 0.86 63 1013.3
20260510161750 58 0 3.0 5.0 0.00 0.86 0.86 63 1013.3
20260510161249 58 0 4.0 5.0 0.00 0.86 0.86 63 1013.3
20260510160750 58 0 3.0 7.0 0.00 0.86 0.86 63 1013.4
20260510160511 58 0 5.0 7.0 0.00 0.86 0.86 63 1013.3
20260510160017 58 0 5.0 6.0 0.00 0.86 0.86 63 1013.4
20260510155255 58 0 4.0 6.0 0.00 0.86 0.86 63 1013.3
20260510155229 58 0 2.0 4.0 0.00 0.86 0.86 63 1013.4
20260510154250 58 0 2.0 3.0 0.00 0.86 0.86 63 1013.5
20260510153750 58 0 3.0 4.0 0.00 0.86 0.86 63 1013.6
20260510153513 58 0 3.0 4.0 0.00 0.86 0.86 63 1013.7
20260510152748 58 0 1.0 4.0 0.00 0.86 0.86 63 1013.6
20260510152249 58 0 2.0 5.0 0.00 0.86 0.86 63 1013.7
20260510151747 58 0 3.0 5.0 0.00 0.86 0.86 63 1013.8
20260510151248 58 0 2.0 3.0 0.00 0.86 0.86 63 1013.8
20260510150747 58 0 2.0 5.0 0.00 0.86 0.86 63 1013.8
20260510150248 58 0 4.0 5.0 0.00 0.86 0.86 63 1013.7
20260510145747 58 0 3.0 5.0 0.00 0.86 0.86 63 1013.8
20260510145508 58 0 4.0 5.0 0.00 0.86 0.86 63 1013.8
20260510144747 58 0 3.0 5.0 0.00 0.86 0.86 63 1013.8
20260510144246 57 0 2.0 6.0 0.00 0.86 0.86 63 1013.9
20260510143747 57 0 3.0 6.0 0.00 0.86 0.86 63 1013.9
20260510143246 57 0 2.0 3.0 0.00 0.86 0.86 63 1014.0
20260510142746 57 0 2.0 3.0 0.00 0.86 0.86 62 1014.1
20260510142507 57 0 2.0 4.0 0.00 0.86 0.86 62 1014.2
20260510141746 57 0 3.0 5.0 0.00 0.86 0.86 62 1014.2
20260510141733 57 0 2.0 5.0 0.00 0.86 0.86 62 1014.2
20260510141011 57 0 2.0 5.0 0.00 0.86 0.86 62 1014.2
20260510140246 57 0 2.0 6.0 0.01 0.86 0.86 62 1014.3
20260510140013 57 0 2.0 6.0 0.01 0.85 0.86 62 1014.4
20260510135505 57 0 3.0 5.0 0.01 0.85 0.86 62 1014.4
20260510134745 57 0 3.0 5.0 0.01 0.85 0.86 62 1014.5
20260510134245 57 0 2.0 6.0 0.01 0.85 0.86 61 1014.6
20260510134010 57 0 5.0 6.0 0.01 0.85 0.86 61 1014.6
20260510133245 57 0 3.0 5.0 0.01 0.85 0.86 61 1014.6
20260510132744 57 0 3.0 6.0 0.01 0.85 0.86 61 1014.7
20260510132245 57 0 3.0 6.0 0.01 0.85 0.86 61 1014.7
20260510131745 57 0 4.0 6.0 0.01 0.85 0.86 61 1014.7
20260510131507 57 0 2.0 5.0 0.01 0.85 0.86 61 1014.7
20260510130744 57 0 3.0 5.0 0.01 0.85 0.86 61 1014.7
20260510130511 57 0 2.0 5.0 0.01 0.85 0.85 61 1014.9
20260510130006 57 0 2.0 5.0 0.01 0.84 0.85 61 1014.8
20260510125245 57 0 4.0 6.0 0.01 0.84 0.85 61 1014.9
20260510125003 57 0 3.0 6.0 0.01 0.84 0.85 61 1014.9
20260510124244 57 0 2.0 6.0 0.01 0.84 0.85 61 1014.9
20260510123743 57 0 2.0 5.0 0.01 0.84 0.85 61 1014.9
20260510123728 57 0 2.0 4.0 0.01 0.84 0.85 61 1014.9
20260510122743 57 0 2.0 5.0 0.01 0.84 0.85 61 1014.9
20260510122243 57 0 1.0 5.0 0.02 0.84 0.85 61 1014.9
20260510121744 57 0 3.0 5.0 0.02 0.84 0.85 61 1014.9
20260510121510 57 0 4.0 5.0 0.02 0.84 0.85 60 1014.9
20260510121008 57 0 2.0 7.0 0.02 0.84 0.85 60 1014.9
20260510120242 57 0 5.0 7.0 0.01 0.84 0.84 60 1014.9
20260510115743 57 0 5.0 7.0 0.01 0.83 0.84 60 1015.0
20260510115243 57 0 3.0 7.0 0.01 0.83 0.84 60 1015.1
20260510114743 58 0 2.0 4.0 0.01 0.83 0.84 60 1015.1
20260510114243 58 0 3.0 5.0 0.01 0.83 0.84 60 1015.2
20260510113742 58 0 2.0 5.0 0.01 0.83 0.84 60 1015.1
20260510113243 58 0 3.0 7.0 0.01 0.83 0.84 60 1015.1
20260510112742 58 0 4.0 11.0 0.01 0.83 0.84 60 1015.1
20260510112242 58 0 4.0 11.0 0.00 0.83 0.83 60 1015.2
20260510112007 58 0 6.0 9.0 0.00 0.83 0.83 60 1015.1
20260510111242 58 0 4.0 6.0 0.00 0.83 0.83 60 1015.4
20260510111003 58 0 4.0 11.0 0.00 0.83 0.83 60 1015.2
20260510110241 58 0 8.0 11.0 0.00 0.83 0.83 60 1015.2
20260510105741 58 0 7.0 10.0 0.00 0.83 0.83 60 1015.2
20260510105241 58 0 4.0 10.0 0.00 0.83 0.83 60 1015.4
20260510104742 58 0 6.0 10.0 0.00 0.83 0.83 60 1015.4
20260510104506 58 0 5.0 9.0 0.00 0.83 0.83 61 1015.4
20260510103741 58 0 4.0 9.0 0.00 0.83 0.83 61 1015.4
20260510103242 57 0 4.0 9.0 0.00 0.83 0.83 61 1015.5
20260510102743 57 0 5.0 9.0 0.00 0.83 0.83 62 1015.4
20260510102242 57 0 4.0 9.0 0.00 0.83 0.83 63 1015.4
20260510101742 57 0 6.0 9.0 0.00 0.83 0.83 64 1015.5
20260510101504 57 0 4.0 9.0 0.00 0.83 0.83 65 1015.5
20260510100742 57 0 4.0 7.0 0.00 0.83 0.83 65 1015.5
20260510100242 57 0 5.0 9.0 0.00 0.83 0.83 66 1015.4
20260510095742 57 0 5.0 9.0 0.00 0.83 0.83 66 1015.4
20260510095242 57 0 4.0 10.0 0.00 0.83 0.83 66 1015.4
20260510094741 57 0 4.0 10.0 0.00 0.83 0.83 66 1015.5
20260510094241 57 0 6.0 9.0 0.00 0.83 0.83 67 1015.5
20260510093741 57 0 6.0 9.0 0.00 0.83 0.83 67 1015.6
20260510093241 57 0 5.0 7.0 0.00 0.83 0.83 67 1015.4
20260510092741 57 0 5.0 7.0 0.00 0.83 0.83 67 1015.4
20260510092241 57 0 5.0 7.0 0.00 0.83 0.83 67 1015.5
20260510092006 57 0 4.0 9.0 0.00 0.83 0.83 67 1015.5
20260510091505 56 0 5.0 9.0 0.00 0.83 0.83 67 1015.4
20260510090741 56 0 4.0 7.0 0.00 0.83 0.83 67 1015.4
20260510090240 56 0 5.0 7.0 0.00 0.83 0.83 68 1015.4
20260510085740 56 0 5.0 7.0 0.01 0.83 0.83 68 1015.2
20260510085240 56 0 5.0 7.0 0.01 0.83 0.83 68 1015.2
20260510084741 56 0 4.0 7.0 0.02 0.83 0.83 68 1015.4
20260510084240 57 0 4.0 6.0 0.02 0.83 0.83 68 1015.4
20260510083740 57 0 4.0 7.0 0.02 0.83 0.83 68 1015.4
20260510083240 57 0 4.0 7.0 0.02 0.83 0.83 68 1015.4
20260510082739 57 0 5.0 6.0 0.02 0.83 0.83 68 1015.4
20260510082239 57 0 4.0 7.0 0.03 0.83 0.83 68 1015.2
20260510081739 56 0 6.0 7.0 0.04 0.83 0.83 68 1015.2
20260510081240 56 0 4.0 7.0 0.04 0.83 0.83 68 1015.1
20260510081005 56 0 5.0 7.0 0.05 0.83 0.83 68 1015.2
20260510080239 56 0 6.0 10.0 0.06 0.83 0.83 68 1015.2
20260510075739 56 0 5.0 10.0 0.06 0.78 0.83 68 1015.1
20260510075239 56 0 6.0 9.0 0.06 0.78 0.83 68 1015.1
20260510074739 57 0 5.0 7.0 0.06 0.78 0.82 68 1015.2
20260510074238 57 0 3.0 7.0 0.08 0.78 0.82 68 1015.1
20260510073738 57 0 5.0 7.0 0.11 0.78 0.82 68 1015.2
20260510073239 57 0 3.0 6.0 0.13 0.78 0.81 68 1015.1
20260510072739 57 0 3.0 4.0 0.16 0.78 0.80 68 1015.1
20260510072456 57 0 3.0 4.0 0.19 0.78 0.80 68 1015.1
20260510071738 57 0 0.0 4.0 0.21 0.78 0.80 68 1015.1
20260510071238 57 0 2.0 4.0 0.24 0.78 0.80 67 1015.1
20260510070738 57 0 0.0 4.0 0.28 0.78 0.79 67 1015.2
20260510070238 57 0 3.0 4.0 0.28 0.78 0.78 67 1015.1
20260510070216 57 0 0.0 3.0 0.30 0.49 0.77 67 1015.1
20260510065238 57 0 0.0 0.0 0.31 0.49 0.76 67 1015.1
20260510064737 57 0 0.0 0.0 0.31 0.49 0.76 67 1015.1
20260510064237 57 0 0.0 2.0 0.31 0.49 0.74 67 1015.2
20260510063738 57 0 1.0 2.0 0.30 0.49 0.71 67 1015.2
20260510063236 57 0 0.0 3.0 0.28 0.49 0.69 67 1015.1
20260510062736 57 0 1.0 4.0 0.26 0.49 0.65 67 1015.1
20260510062235 57 0 3.0 4.0 0.24 0.49 0.61 66 1015.1
20260510061735 57 0 2.0 5.0 0.22 0.49 0.58 66 1015.1
20260510061241 57 0 3.0 5.0 0.20 0.49 0.55 66 1015.1
20260510060735 57 0 3.0 4.0 0.17 0.49 0.51 66 1015.1
20260510060235 57 0 2.0 3.0 0.17 0.49 0.49 65 1015.1
20260510055735 57 0 2.0 3.0 0.16 0.32 0.47 65 1015.1
20260510055235 57 0 2.0 3.0 0.15 0.32 0.45 65 1015.0
20260510054734 57 0 2.0 3.0 0.14 0.32 0.43 64 1015.0
20260510054235 57 0 1.0 2.0 0.13 0.32 0.43 64 1015.0
20260510053735 57 0 0.0 1.0 0.13 0.32 0.41 64 1015.1
20260510053234 57 0 0.0 2.0 0.13 0.32 0.40 64 1015.1
20260510052735 57 0 1.0 2.0 0.13 0.32 0.39 63 1015.1
20260510052234 57 0 1.0 2.0 0.12 0.32 0.38 63 1015.1
20260510051733 57 0 1.0 2.0 0.11 0.32 0.36 63 1015.0
20260510051233 57 0 1.0 4.0 0.12 0.32 0.35 63 1015.0
20260510050734 57 0 2.0 4.0 0.11 0.32 0.34 62 1014.9
20260510050234 57 0 3.0 5.0 0.11 0.32 0.32 61 1014.9
20260510045733 57 0 4.0 5.0 0.10 0.22 0.31 61 1014.9
20260510045233 57 0 2.0 5.0 0.09 0.22 0.31 60 1015.0
20260510044734 57 0 2.0 3.0 0.09 0.22 0.30 60 1015.0
20260510044233 58 0 0.0 2.0 0.09 0.22 0.29 60 1015.0
20260510043734 58 0 0.0 4.0 0.08 0.22 0.28 59 1015.0
20260510043233 58 0 3.0 4.0 0.08 0.22 0.27 59 1015.0
20260510042733 57 0 1.0 3.0 0.08 0.22 0.27 59 1015.0
20260510042233 57 0 0.0 0.0 0.09 0.22 0.26 59 1015.0
20260510041733 57 0 0.0 0.0 0.09 0.22 0.24 59 1015.0
20260510041233 57 0 0.0 0.0 0.09 0.22 0.23 59 1014.9
20260510040734 57 0 0.0 0.0 0.09 0.22 0.22 59 1014.9
20260510040234 57 0 0.0 2.0 0.11 0.22 0.22 59 1014.9
20260510035734 58 0 0.0 3.0 0.13 0.09 0.21 59 1014.7
20260510035234 58 0 2.0 5.0 0.15 0.09 0.21 59 1014.7
20260510034955 58 0 3.0 5.0 0.17 0.09 0.20 59 1014.7
20260510034452 58 0 4.0 5.0 0.19 0.09 0.20 59 1014.7
20260510033733 58 0 3.0 4.0 0.20 0.09 0.20 59 1014.7
20260510033456 58 0 2.0 4.0 0.19 0.09 0.20 58 1014.8
20260510032733 58 0 1.0 5.0 0.18 0.09 0.18 58 1014.8
20260510032233 58 0 1.0 5.0 0.17 0.09 0.17 58 1014.8
20260510031733 58 0 0.0 2.0 0.16 0.09 0.17 58 1014.9
20260510031233 58 0 0.0 3.0 0.14 0.09 0.15 58 1015.1
20260510030733 58 0 0.0 3.0 0.13 0.09 0.13 58 1015.2
20260510030233 58 0 1.0 5.0 0.10 0.09 0.10 58 1015.2
20260510025732 58 0 2.0 5.0 0.08 0.01 0.07 58 1015.2
20260510025233 58 0 1.0 5.0 0.06 0.01 0.06 57 1015.1
20260510024732 58 0 2.0 7.0 0.02 0.01 0.02 57 1015.1
20260510024232 58 0 4.0 9.0 0.01 0.01 0.02 57 1014.9
20260510023955 59 0 4.0 13.0 0.00 0.01 0.01 56 1014.9
20260510023232 59 0 7.0 13.0 0.00 0.01 0.01 56 1014.9
20260510022731 59 0 5.0 7.0 0.00 0.01 0.01 56 1014.8
20260510022232 59 0 5.0 7.0 0.01 0.01 0.01 56 1014.7
20260510021732 59 0 6.0 7.0 0.01 0.01 0.01 56 1014.7
20260510021231 59 0 5.0 10.0 0.01 0.01 0.01 56 1014.9
20260510020732 59 0 4.0 12.0 0.01 0.01 0.01 56 1014.8
20260510020231 60 0 7.0 12.0 0.01 0.01 0.01 56 1014.8
20260510015731 61 0 0.0 4.0 0.01 0.00 0.01 55 1014.6
20260510015231 61 0 0.0 4.0 0.01 0.00 0.01 55 1014.3
20260510014731 61 0 0.0 4.0 0.01 0.00 0.01 55 1014.3
20260510014231 61 0 2.0 5.0 0.01 0.00 0.01 55 1014.3
20260510013731 61 0 4.0 6.0 0.01 0.00 0.01 55 1014.4
20260510013231 61 0 1.0 6.0 0.01 0.00 0.01 55 1014.5
20260510012953 61 0 5.0 6.0 0.01 0.00 0.01 55 1014.6
20260510012231 62 0 4.0 5.0 0.00 0.00 0.00 55 1014.8
20260510011730 62 0 2.0 3.0 0.00 0.00 0.00 55 1014.8
20260510011230 62 0 2.0 3.0 0.00 0.00 0.00 55 1014.9
20260510010730 62 0 1.0 4.0 0.00 0.00 0.00 55 1014.9
20260510010231 62 0 2.0 4.0 0.00 0.00 0.00 55 1014.9
20260510005730 62 0 3.0 3.0 0.00 0.00 0.00 55 1014.9
20260510005453 62 0 2.0 6.0 0.00 0.00 0.00 55 1014.8
20260510004730 62 0 2.0 6.0 0.00 0.00 0.00 55 1014.9
20260510004230 62 0 3.0 4.0 0.00 0.00 0.00 54 1014.9
20260510003730 62 0 2.0 4.0 0.00 0.00 0.00 54 1015.0
20260510003229 62 0 1.0 3.0 0.00 0.00 0.00 54 1015.1
20260510002729 62 0 1.0 3.0 0.00 0.00 0.00 54 1015.2
20260510002228 62 0 1.0 2.0 0.00 0.00 0.00 54 1015.2
20260510002208 62 0 1.0 2.0 0.00 0.00 0.00 54 1015.2
20260510001228 62 0 2.0 3.0 0.00 0.00 0.00 55 1015.5
20260510000729 62 0 2.0 3.0 0.00 0.00 0.00 55 1015.5
20260510000228 62 0 2.0 3.0 0.00 0.00 0.00 55 1015.5
20260509235729 62 0 2.0 2.0 0.00 0.00 0.00 55 1015.6
20260509235228 62 0 0.0 2.0 0.00 0.00 0.00 54 1015.7
20260509234956 62 0 0.0 0.0 0.00 0.00 0.00 54 1015.7
20260509234228 62 0 0.0 0.0 0.00 0.00 0.00 54 1015.7
20260509233729 63 0 0.0 2.0 0.00 0.00 0.00 54 1015.7
20260509233228 63 0 0.0 3.0 0.00 0.00 0.00 54 1015.7
20260509232728 63 0 2.0 3.0 0.00 0.00 0.00 54 1015.8
20260509232228 63 0 2.0 4.0 0.00 0.00 0.00 54 1015.7
20260509231727 63 0 3.0 4.0 0.00 0.00 0.00 54 1015.7
20260509231227 63 0 3.0 4.0 0.00 0.00 0.00 53 1015.8
20260509230727 63 0 0.0 0.0 0.00 0.00 0.00 54 1015.8
20260509230227 63 0 0.0 0.0 0.00 0.00 0.00 53 1015.9
20260509225727 63 0 0.0 0.0 0.00 0.00 0.00 53 1015.8
20260509225227 63 0 0.0 0.0 0.00 0.00 0.00 53 1015.8
20260509224949 63 0 0.0 4.0 0.00 0.00 0.00 53 1015.7
20260509224226 64 0 0.0 4.0 0.00 0.00 0.00 53 1015.7
20260509223947 64 0 3.0 4.0 0.00 0.00 0.00 53 1015.7
20260509223227 64 0 1.0 4.0 0.00 0.00 0.00 53 1015.8
20260509222726 64 0 2.0 4.0 0.00 0.00 0.00 53 1015.7
20260509222227 64 0 1.0 3.0 0.00 0.00 0.00 53 1015.6
20260509221726 64 0 2.0 5.0 0.00 0.00 0.00 52 1015.7
20260509221449 64 0 3.0 5.0 0.00 0.00 0.00 52 1015.7
20260509220726 64 0 3.0 5.0 0.00 0.00 0.00 52 1015.8
20260509220227 64 0 3.0 5.0 0.00 0.00 0.00 51 1015.8
20260509215726 65 0 3.0 5.0 0.00 0.00 0.00 51 1015.7
20260509215226 65 0 3.0 5.0 0.00 0.00 0.00 51 1015.8
20260509214725 65 0 3.0 5.0 0.00 0.00 0.00 51 1015.8
20260509214706 65 0 4.0 6.0 0.00 0.00 0.00 50 1015.9
20260509213725 65 0 4.0 6.0 0.00 0.00 0.00 50 1015.8
20260509213454 65 0 2.0 3.0 0.00 0.00 0.00 49 1015.9
20260509212725 65 0 2.0 4.0 0.00 0.00 0.00 49 1015.9
20260509212449 65 0 3.0 5.0 0.00 0.00 0.00 49 1015.9
20260509211943 66 0 3.0 5.0 0.00 0.00 0.00 48 1015.9
20260509211225 66 0 4.0 5.0 0.00 0.00 0.00 48 1015.9
20260509210724 66 0 2.0 2.0 0.00 0.00 0.00 48 1015.8
20260509210225 66 0 0.0 0.0 0.00 0.00 0.00 48 1015.9
20260509205949 66 0 0.0 3.0 0.00 0.00 0.00 48 1016.0
20260509205224 66 0 0.0 3.0 0.00 0.00 0.00 48 1015.9
20260509204724 66 0 2.0 2.0 0.00 0.00 0.00 48 1015.9
20260509204712 66 0 2.0 4.0 0.00 0.00 0.00 47 1015.9
20260509203724 66 0 1.0 4.0 0.00 0.00 0.00 47 1015.9
20260509203224 66 0 3.0 4.0 0.00 0.00 0.00 48 1015.8
20260509202724 67 0 0.0 2.0 0.00 0.00 0.00 48 1015.8
20260509202224 67 0 0.0 0.0 0.00 0.00 0.00 49 1015.9
20260509201724 67 0 0.0 0.0 0.00 0.00 0.00 49 1015.8
20260509201223 67 0 0.0 0.0 0.00 0.00 0.00 49 1015.8
20260509200723 68 0 0.0 0.0 0.00 0.00 0.00 49 1015.8
20260509200450 68 0 0.0 0.0 0.00 0.00 0.00 49 1015.8
20260509195728 68 0 0.0 0.0 0.00 0.00 0.00 49 1015.7
20260509195223 68 0 0.0 0.0 0.00 0.00 0.00 49 1015.7
20260509194949 69 0 0.0 0.0 0.00 0.00 0.00 50 1015.6
20260509194223 69 0 0.0 0.0 0.00 0.00 0.00 49 1015.5
20260509193723 69 0 0.0 0.0 0.00 0.00 0.00 49 1015.5
20260509193223 70 0 0.0 0.0 0.00 0.00 0.00 46 1015.4
20260509192722 70 0 0.0 0.0 0.00 0.00 0.00 43 1015.4
20260509192222 70 0 0.0 0.0 0.00 0.00 0.00 43 1015.1
20260509191722 70 0 0.0 0.0 0.00 0.00 0.00 42 1015.1
20260509191222 70 0 0.0 2.0 0.00 0.00 0.00 42 1015.0
20260509190722 71 0 0.0 2.0 0.00 0.00 0.00 43 1015.0
20260509190222 71 0 0.0 3.0 0.00 0.00 0.00 43 1014.9
20260509185723 71 0 2.0 3.0 0.00 0.00 0.00 42 1014.9
20260509185222 71 0 0.0 2.0 0.00 0.00 0.00 42 1014.9
20260509184722 71 0 1.0 3.0 0.00 0.00 0.00 43 1014.9
20260509184222 71 0 2.0 3.0 0.00 0.00 0.00 43 1014.9
20260509183722 71 0 2.0 4.0 0.00 0.00 0.00 42 1014.9
20260509183221 71 0 3.0 4.0 0.00 0.00 0.00 42 1014.9
20260509182949 71 0 1.0 5.0 0.00 0.00 0.00 41 1014.8
20260509182216 72 0 3.0 5.0 0.00 0.00 0.00 41 1014.8
20260509181709 72 0 3.0 5.0 0.00 0.00 0.00 41 1014.8
20260509181210 72 0 1.0 4.0 0.00 0.00 0.00 40 1014.8
20260509180706 73 0 3.0 4.0 0.00 0.00 0.00 39 1014.9
20260509180430 73 0 2.0 3.0 0.00 0.00 0.00 39 1014.8
20260509175706 74 0 1.0 3.0 0.00 0.00 0.00 38 1014.8
20260509175205 74 0 1.0 2.0 0.00 0.00 0.00 37 1014.8
20260509174706 74 0 0.0 0.0 0.00 0.00 0.00 35 1014.7
20260509174206 74 0 0.0 2.0 0.00 0.00 0.00 36 1014.8